Year,Month,Day,Hour,Minute,Value (Times are PST for temperature in C)
2007,06,01,00,00,15.30
2007,06,01,00,01,15.20
2007,06,01,00,02,15.20
2007,06,01,00,03,15.20
2007,06,01,00,04,15.20
2007,06,01,00,05,15.10
2007,06,01,00,06,15.10
2007,06,01,00,07,15.10
2007,06,01,00,08,15.10
2007,06,01,00,09,15.10
2007,06,01,00,10,15.10
2007,06,01,00,11,15.00
2007,06,01,00,12,15.00
2007,06,01,00,13,15.00
2007,06,01,00,14,15.00
2007,06,01,00,15,14.90
2007,06,01,00,16,14.90
2007,06,01,00,17,14.90
2007,06,01,00,18,14.90
2007,06,01,00,19,14.90
2007,06,01,00,20,14.90
2007,06,01,00,21,14.80
2007,06,01,00,22,14.80
2007,06,01,00,23,14.90
2007,06,01,00,24,14.90
2007,06,01,00,25,14.90
2007,06,01,00,26,15.00
2007,06,01,00,27,15.00
2007,06,01,00,28,15.00
2007,06,01,00,29,14.90
2007,06,01,00,30,14.90
2007,06,01,00,31,14.90
2007,06,01,00,32,14.90
2007,06,01,00,33,14.90
2007,06,01,00,34,14.90
2007,06,01,00,35,14.90
2007,06,01,00,36,14.80
2007,06,01,00,37,14.80
2007,06,01,00,38,14.80
2007,06,01,00,39,14.80
2007,06,01,00,40,14.80
2007,06,01,00,41,14.80
2007,06,01,00,42,14.80
2007,06,01,00,43,14.80
2007,06,01,00,44,14.70
2007,06,01,00,45,14.70
2007,06,01,00,46,14.70
2007,06,01,00,47,14.70
2007,06,01,00,48,14.60
2007,06,01,00,49,14.60
2007,06,01,00,50,14.60
2007,06,01,00,51,14.50
2007,06,01,00,52,14.50
2007,06,01,00,53,14.50
2007,06,01,00,54,14.50
2007,06,01,00,55,14.50
2007,06,01,00,56,14.40
2007,06,01,00,57,14.40
2007,06,01,00,58,14.40
2007,06,01,00,59,14.40
2007,06,01,01,00,14.40
2007,06,01,01,01,14.40
2007,06,01,01,02,14.40
2007,06,01,01,03,14.40
2007,06,01,01,04,14.30
2007,06,01,01,05,14.30
2007,06,01,01,06,14.30
2007,06,01,01,07,14.20
2007,06,01,01,08,14.20
2007,06,01,01,09,14.20
2007,06,01,01,10,14.20
2007,06,01,01,11,14.20
2007,06,01,01,12,14.10
2007,06,01,01,13,14.10
2007,06,01,01,14,14.00
2007,06,01,01,15,14.00
2007,06,01,01,16,13.90
2007,06,01,01,17,13.90
2007,06,01,01,18,13.90
2007,06,01,01,19,13.80
2007,06,01,01,20,13.80
2007,06,01,01,21,13.70
2007,06,01,01,22,13.70
2007,06,01,01,23,13.70
2007,06,01,01,24,13.70
2007,06,01,01,25,13.60
2007,06,01,01,26,13.60
2007,06,01,01,27,13.60
2007,06,01,01,28,13.50
2007,06,01,01,29,13.50
2007,06,01,01,30,13.50
2007,06,01,01,31,13.50
2007,06,01,01,32,13.40
2007,06,01,01,33,13.40
2007,06,01,01,34,13.40
2007,06,01,01,35,13.30
2007,06,01,01,36,13.30
2007,06,01,01,37,13.30
2007,06,01,01,38,13.30
2007,06,01,01,39,13.30
2007,06,01,01,40,13.30
2007,06,01,01,41,13.30
2007,06,01,01,42,13.20
2007,06,01,01,43,13.20
2007,06,01,01,44,13.20
2007,06,01,01,45,13.20
2007,06,01,01,46,13.20
2007,06,01,01,47,13.20
2007,06,01,01,48,13.20
2007,06,01,01,49,13.20
2007,06,01,01,50,13.20
2007,06,01,01,51,13.20
2007,06,01,01,52,13.20
2007,06,01,01,53,13.20
2007,06,01,01,54,13.20
2007,06,01,01,55,13.20
2007,06,01,01,56,13.20
2007,06,01,01,57,13.10
2007,06,01,01,58,13.10
2007,06,01,01,59,13.10
2007,06,01,02,00,13.10
2007,06,01,02,01,13.10
2007,06,01,02,02,13.10
2007,06,01,02,03,13.10
2007,06,01,02,04,13.10
2007,06,01,02,05,13.10
2007,06,01,02,06,13.10
2007,06,01,02,07,13.10
2007,06,01,02,08,13.20
2007,06,01,02,09,13.20
2007,06,01,02,10,13.20
2007,06,01,02,11,13.20
2007,06,01,02,12,13.20
2007,06,01,02,13,13.20
2007,06,01,02,14,13.20
2007,06,01,02,15,13.20
2007,06,01,02,16,13.20
2007,06,01,02,17,13.20
2007,06,01,02,18,13.20
2007,06,01,02,19,13.20
2007,06,01,02,20,13.20
2007,06,01,02,21,13.20
2007,06,01,02,22,13.20
2007,06,01,02,23,13.20
2007,06,01,02,24,13.20
2007,06,01,02,25,13.20
2007,06,01,02,26,13.20
2007,06,01,02,27,13.20
2007,06,01,02,28,13.20
2007,06,01,02,29,13.20
2007,06,01,02,30,13.20
2007,06,01,02,31,13.10
2007,06,01,02,32,13.10
2007,06,01,02,33,13.10
2007,06,01,02,34,13.10
2007,06,01,02,35,13.00
2007,06,01,02,36,13.00
2007,06,01,02,37,13.00
2007,06,01,02,38,12.90
2007,06,01,02,39,12.90
2007,06,01,02,40,12.90
2007,06,01,02,41,12.80
2007,06,01,02,42,12.80
2007,06,01,02,43,12.80
2007,06,01,02,44,12.80
2007,06,01,02,45,12.80
2007,06,01,02,46,12.80
2007,06,01,02,47,12.70
2007,06,01,02,48,12.70
2007,06,01,02,49,12.70
2007,06,01,02,50,12.70
2007,06,01,02,51,12.60
2007,06,01,02,52,12.60
2007,06,01,02,53,12.60
2007,06,01,02,54,12.60
2007,06,01,02,55,12.60
2007,06,01,02,56,12.50
2007,06,01,02,57,12.50
2007,06,01,02,58,12.50
2007,06,01,02,59,12.50
2007,06,01,03,00,12.50
2007,06,01,03,01,12.40
2007,06,01,03,02,12.40
2007,06,01,03,03,12.40
2007,06,01,03,04,12.40
2007,06,01,03,05,12.40
2007,06,01,03,06,12.40
2007,06,01,03,07,12.40
2007,06,01,03,08,12.40
2007,06,01,03,09,12.40
2007,06,01,03,10,12.30
2007,06,01,03,11,12.30
2007,06,01,03,12,12.30
2007,06,01,03,13,12.30
2007,06,01,03,14,12.30
2007,06,01,03,15,12.30
2007,06,01,03,16,12.30
2007,06,01,03,17,12.30
2007,06,01,03,18,12.30
2007,06,01,03,19,12.30
2007,06,01,03,20,12.30
2007,06,01,03,21,12.30
2007,06,01,03,22,12.30
2007,06,01,03,23,12.30
2007,06,01,03,24,12.20
2007,06,01,03,25,12.20
2007,06,01,03,26,12.20
2007,06,01,03,27,12.20
2007,06,01,03,28,12.20
2007,06,01,03,29,12.10
2007,06,01,03,30,12.10
2007,06,01,03,31,12.10
2007,06,01,03,32,12.10
2007,06,01,03,33,12.10
2007,06,01,03,34,12.10
2007,06,01,03,35,12.10
2007,06,01,03,36,12.10
2007,06,01,03,37,12.10
2007,06,01,03,38,12.10
2007,06,01,03,39,12.10
2007,06,01,03,40,12.10
2007,06,01,03,41,12.10
2007,06,01,03,42,12.10
2007,06,01,03,43,12.10
2007,06,01,03,44,12.10
2007,06,01,03,45,12.10
2007,06,01,03,46,12.00
2007,06,01,03,47,12.10
2007,06,01,03,48,12.10
2007,06,01,03,49,12.10
2007,06,01,03,50,12.10
2007,06,01,03,51,12.10
2007,06,01,03,52,12.00
2007,06,01,03,53,12.00
2007,06,01,03,54,12.00
2007,06,01,03,55,12.00
2007,06,01,03,56,12.00
2007,06,01,03,57,12.00
2007,06,01,03,58,12.00
2007,06,01,03,59,12.00
2007,06,01,04,00,12.00
2007,06,01,04,01,12.00
2007,06,01,04,02,12.00
2007,06,01,04,03,12.00
2007,06,01,04,04,12.00
2007,06,01,04,05,11.90
2007,06,01,04,06,11.90
2007,06,01,04,07,11.90
2007,06,01,04,08,11.90
2007,06,01,04,09,11.90
2007,06,01,04,10,11.90
2007,06,01,04,11,11.90
2007,06,01,04,12,11.80
2007,06,01,04,13,11.80
2007,06,01,04,14,11.80
2007,06,01,04,15,11.80
2007,06,01,04,16,11.80
2007,06,01,04,17,11.80
2007,06,01,04,18,11.80
2007,06,01,04,19,11.80
2007,06,01,04,20,11.80
2007,06,01,04,21,11.80
2007,06,01,04,22,11.80
2007,06,01,04,23,11.80
2007,06,01,04,24,11.80
2007,06,01,04,25,11.80
2007,06,01,04,26,11.70
2007,06,01,04,27,11.70
2007,06,01,04,28,11.70
2007,06,01,04,29,11.70
2007,06,01,04,30,11.70
2007,06,01,04,31,11.70
2007,06,01,04,32,11.70
2007,06,01,04,33,11.70
2007,06,01,04,34,11.70
2007,06,01,04,35,11.60
2007,06,01,04,36,11.60
2007,06,01,04,37,11.60
2007,06,01,04,38,11.60
2007,06,01,04,39,11.60
2007,06,01,04,40,11.60
2007,06,01,04,41,11.60
2007,06,01,04,42,11.60
2007,06,01,04,43,11.60
2007,06,01,04,44,11.60
2007,06,01,04,45,11.60
2007,06,01,04,46,11.40
2007,06,01,04,47,11.40
2007,06,01,04,48,11.40
2007,06,01,04,49,11.40
2007,06,01,04,50,11.40
2007,06,01,04,51,11.40
2007,06,01,04,52,11.40
2007,06,01,04,53,11.40
2007,06,01,04,54,11.30
2007,06,01,04,55,11.30
2007,06,01,04,56,11.30
2007,06,01,04,57,11.30
2007,06,01,04,58,11.30
2007,06,01,04,59,11.30
2007,06,01,05,00,11.20
2007,06,01,05,01,11.20
2007,06,01,05,02,11.20
2007,06,01,05,03,11.20
2007,06,01,05,04,11.20
2007,06,01,05,05,11.20
2007,06,01,05,06,11.20
2007,06,01,05,07,11.20
2007,06,01,05,08,11.20
2007,06,01,05,09,11.20
2007,06,01,05,10,11.20
2007,06,01,05,11,11.20
2007,06,01,05,12,11.20
2007,06,01,05,13,11.20
2007,06,01,05,14,11.20
2007,06,01,05,15,11.20
2007,06,01,05,16,11.10
2007,06,01,05,17,11.10
2007,06,01,05,18,11.10
2007,06,01,05,19,11.10
2007,06,01,05,20,11.10
2007,06,01,05,21,11.10
2007,06,01,05,22,11.10
2007,06,01,05,23,11.10
2007,06,01,05,24,11.10
2007,06,01,05,25,11.10
2007,06,01,05,26,11.10
2007,06,01,05,27,11.10
2007,06,01,05,28,11.10
2007,06,01,05,29,11.10
2007,06,01,05,30,11.10
2007,06,01,05,31,11.10
2007,06,01,05,32,11.10
2007,06,01,05,33,11.10
2007,06,01,05,34,11.10
2007,06,01,05,35,11.10
2007,06,01,05,36,11.10
2007,06,01,05,37,11.10
2007,06,01,05,38,11.10
2007,06,01,05,39,11.10
2007,06,01,05,40,11.10
2007,06,01,05,41,11.10
2007,06,01,05,42,11.10
2007,06,01,05,43,11.10
2007,06,01,05,44,11.10
2007,06,01,05,45,11.10
2007,06,01,05,46,11.10
2007,06,01,05,47,11.10
2007,06,01,05,48,11.10
2007,06,01,05,49,11.10
2007,06,01,05,50,11.10
2007,06,01,05,51,11.10
2007,06,01,05,52,11.10
2007,06,01,05,53,11.10
2007,06,01,05,54,11.20
2007,06,01,05,55,11.20
2007,06,01,05,56,11.20
2007,06,01,05,57,11.20
2007,06,01,05,58,11.20
2007,06,01,05,59,11.30
2007,06,01,06,00,11.30
2007,06,01,06,01,11.30
2007,06,01,06,02,11.30
2007,06,01,06,03,11.30
2007,06,01,06,04,11.40
2007,06,01,06,05,11.40
2007,06,01,06,06,11.40
2007,06,01,06,07,11.40
2007,06,01,06,08,11.50
2007,06,01,06,09,11.60
2007,06,01,06,10,11.60
2007,06,01,06,11,11.60
2007,06,01,06,12,11.60
2007,06,01,06,13,11.70
2007,06,01,06,14,11.70
2007,06,01,06,15,11.70
2007,06,01,06,16,11.70
2007,06,01,06,17,11.70
2007,06,01,06,18,11.80
2007,06,01,06,19,11.80
2007,06,01,06,20,11.80
2007,06,01,06,21,11.80
2007,06,01,06,22,11.80
2007,06,01,06,23,11.80
2007,06,01,06,24,11.80
2007,06,01,06,25,11.80
2007,06,01,06,26,11.80
2007,06,01,06,27,11.80
2007,06,01,06,28,11.90
2007,06,01,06,29,11.90
2007,06,01,06,30,11.90
2007,06,01,06,31,11.90
2007,06,01,06,32,12.00
2007,06,01,06,33,12.00
2007,06,01,06,34,12.00
2007,06,01,06,35,12.00
2007,06,01,06,36,12.00
2007,06,01,06,37,12.00
2007,06,01,06,38,12.10
2007,06,01,06,39,12.10
2007,06,01,06,40,12.10
2007,06,01,06,41,12.10
2007,06,01,06,42,12.10
2007,06,01,06,43,12.20
2007,06,01,06,44,12.20
2007,06,01,06,45,12.20
2007,06,01,06,46,12.30
2007,06,01,06,47,12.30
2007,06,01,06,48,12.30
2007,06,01,06,49,12.50
2007,06,01,06,50,12.50
2007,06,01,06,51,12.60
2007,06,01,06,52,12.60
2007,06,01,06,53,12.70
2007,06,01,06,54,12.70
2007,06,01,06,55,12.80
2007,06,01,06,56,12.80
2007,06,01,06,57,12.90
2007,06,01,06,58,13.00
2007,06,01,06,59,13.10
2007,06,01,07,00,13.20
2007,06,01,07,01,13.30
2007,06,01,07,02,13.30
2007,06,01,07,03,13.50
2007,06,01,07,04,13.50
2007,06,01,07,05,13.60
2007,06,01,07,06,13.70
2007,06,01,07,07,13.80
2007,06,01,07,08,13.90
2007,06,01,07,09,13.90
2007,06,01,07,10,14.00
2007,06,01,07,11,14.00
2007,06,01,07,12,14.10
2007,06,01,07,13,14.20
2007,06,01,07,14,14.20
2007,06,01,07,15,14.20
2007,06,01,07,16,14.20
2007,06,01,07,17,14.30
2007,06,01,07,18,14.50
2007,06,01,07,19,14.60
2007,06,01,07,20,14.60
2007,06,01,07,21,14.70
2007,06,01,07,22,14.80
2007,06,01,07,23,14.90
2007,06,01,07,24,14.90
2007,06,01,07,25,15.00
2007,06,01,07,26,15.10
2007,06,01,07,27,15.10
2007,06,01,07,28,15.20
2007,06,01,07,29,15.20
2007,06,01,07,30,15.30
2007,06,01,07,31,15.30
2007,06,01,07,32,15.30
2007,06,01,07,33,15.30
2007,06,01,07,34,15.30
2007,06,01,07,35,15.30
2007,06,01,07,36,15.40
2007,06,01,07,37,15.40
2007,06,01,07,38,15.40
2007,06,01,07,39,15.40
2007,06,01,07,40,15.40
2007,06,01,07,41,15.40
2007,06,01,07,42,15.40
2007,06,01,07,43,15.40
2007,06,01,07,44,15.50
2007,06,01,07,45,15.50
2007,06,01,07,46,15.50
2007,06,01,07,47,15.50
2007,06,01,07,48,15.50
2007,06,01,07,49,15.50
2007,06,01,07,50,15.50
2007,06,01,07,51,15.50
2007,06,01,07,52,15.60
2007,06,01,07,53,15.60
2007,06,01,07,54,15.60
2007,06,01,07,55,15.60
2007,06,01,07,56,15.60
2007,06,01,07,57,15.60
2007,06,01,07,58,15.60
2007,06,01,07,59,15.60
2007,06,01,08,00,15.60
2007,06,01,08,01,15.60
2007,06,01,08,02,15.60
2007,06,01,08,03,15.70
2007,06,01,08,04,15.70
2007,06,01,08,05,15.70
2007,06,01,08,06,15.70
2007,06,01,08,07,15.70
2007,06,01,08,08,15.70
2007,06,01,08,09,15.70
2007,06,01,08,10,15.70
2007,06,01,08,11,15.80
2007,06,01,08,12,15.80
2007,06,01,08,13,15.80
2007,06,01,08,14,15.80
2007,06,01,08,15,15.80
2007,06,01,08,16,15.80
2007,06,01,08,17,15.90
2007,06,01,08,18,15.90
2007,06,01,08,19,15.90
2007,06,01,08,20,16.00
2007,06,01,08,21,16.10
2007,06,01,08,22,16.10
2007,06,01,08,23,16.10
2007,06,01,08,24,16.10
2007,06,01,08,25,16.10
2007,06,01,08,26,16.10
2007,06,01,08,27,16.20
2007,06,01,08,28,16.20
2007,06,01,08,29,16.20
2007,06,01,08,30,16.30
2007,06,01,08,31,16.30
2007,06,01,08,32,16.30
2007,06,01,08,33,16.40
2007,06,01,08,34,16.40
2007,06,01,08,35,16.40
2007,06,01,08,36,16.40
2007,06,01,08,37,16.40
2007,06,01,08,38,16.40
2007,06,01,08,39,16.40
2007,06,01,08,40,16.40
2007,06,01,08,41,16.40
2007,06,01,08,42,16.40
2007,06,01,08,43,16.40
2007,06,01,08,44,16.40
2007,06,01,08,45,16.40
2007,06,01,08,46,16.30
2007,06,01,08,47,16.30
2007,06,01,08,48,16.30
2007,06,01,08,49,16.30
2007,06,01,08,50,16.30
2007,06,01,08,51,16.30
2007,06,01,08,52,16.30
2007,06,01,08,53,16.20
2007,06,01,08,54,16.20
2007,06,01,08,55,16.20
2007,06,01,08,56,16.20
2007,06,01,08,57,16.10
2007,06,01,08,58,16.20
2007,06,01,08,59,16.20
2007,06,01,09,00,16.20
2007,06,01,09,01,16.10
2007,06,01,09,02,16.10
2007,06,01,09,03,16.10
2007,06,01,09,04,16.20
2007,06,01,09,05,16.20
2007,06,01,09,06,16.20
2007,06,01,09,07,16.20
2007,06,01,09,08,16.20
2007,06,01,09,09,16.20
2007,06,01,09,10,16.20
2007,06,01,09,11,16.20
2007,06,01,09,12,16.20
2007,06,01,09,13,16.20
2007,06,01,09,14,16.20
2007,06,01,09,15,16.20
2007,06,01,09,16,16.20
2007,06,01,09,17,16.10
2007,06,01,09,18,16.10
2007,06,01,09,19,16.10
2007,06,01,09,20,16.10
2007,06,01,09,21,16.10
2007,06,01,09,22,16.10
2007,06,01,09,23,16.10
2007,06,01,09,24,16.10
2007,06,01,09,25,16.10
2007,06,01,09,26,16.10
2007,06,01,09,27,16.10
2007,06,01,09,28,16.10
2007,06,01,09,29,16.10
2007,06,01,09,30,16.10
2007,06,01,09,31,16.20
2007,06,01,09,32,16.20
2007,06,01,09,33,16.20
2007,06,01,09,34,16.20
2007,06,01,09,35,16.30
2007,06,01,09,36,16.30
2007,06,01,09,37,16.30
2007,06,01,09,38,16.30
2007,06,01,09,39,16.40
2007,06,01,09,40,16.40
2007,06,01,09,41,16.40
2007,06,01,09,42,16.40
2007,06,01,09,43,16.40
2007,06,01,09,44,16.50
2007,06,01,09,45,16.60
2007,06,01,09,46,16.60
2007,06,01,09,47,16.70
2007,06,01,09,48,16.70
2007,06,01,09,49,16.80
2007,06,01,09,50,16.80
2007,06,01,09,51,16.90
2007,06,01,09,52,16.90
2007,06,01,09,53,16.90
2007,06,01,09,54,16.90
2007,06,01,09,55,16.90
2007,06,01,09,56,16.90
2007,06,01,09,57,17.00
2007,06,01,09,58,17.00
2007,06,01,09,59,17.00
2007,06,01,10,00,17.00
2007,06,01,10,01,17.10
2007,06,01,10,02,17.20
2007,06,01,10,03,17.20
2007,06,01,10,04,17.30
2007,06,01,10,05,17.20
2007,06,01,10,06,17.20
2007,06,01,10,07,17.10
2007,06,01,10,08,17.00
2007,06,01,10,09,17.00
2007,06,01,10,10,17.00
2007,06,01,10,11,17.00
2007,06,01,10,12,17.00
2007,06,01,10,13,17.10
2007,06,01,10,14,17.20
2007,06,01,10,15,17.30
2007,06,01,10,16,17.40
2007,06,01,10,17,17.50
2007,06,01,10,18,17.60
2007,06,01,10,19,17.60
2007,06,01,10,20,17.70
2007,06,01,10,21,17.80
2007,06,01,10,22,17.90
2007,06,01,10,23,17.90
2007,06,01,10,24,18.00
2007,06,01,10,25,18.10
2007,06,01,10,26,18.20
2007,06,01,10,27,18.20
2007,06,01,10,28,18.10
2007,06,01,10,29,18.00
2007,06,01,10,30,17.90
2007,06,01,10,31,17.90
2007,06,01,10,32,17.90
2007,06,01,10,33,17.90
2007,06,01,10,34,17.90
2007,06,01,10,35,17.90
2007,06,01,10,36,17.80
2007,06,01,10,37,17.80
2007,06,01,10,38,17.90
2007,06,01,10,39,17.90
2007,06,01,10,40,17.90
2007,06,01,10,41,17.90
2007,06,01,10,42,17.90
2007,06,01,10,43,17.90
2007,06,01,10,44,17.90
2007,06,01,10,45,17.90
2007,06,01,10,46,17.90
2007,06,01,10,47,17.90
2007,06,01,10,48,18.10
2007,06,01,10,49,18.10
2007,06,01,10,50,18.00
2007,06,01,10,51,17.90
2007,06,01,10,52,17.90
2007,06,01,10,53,17.90
2007,06,01,10,54,18.00
2007,06,01,10,55,18.10
2007,06,01,10,56,18.20
2007,06,01,10,57,18.30
2007,06,01,10,58,18.40
2007,06,01,10,59,18.50
2007,06,01,11,00,18.60
2007,06,01,11,01,18.60
2007,06,01,11,02,18.70
2007,06,01,11,03,18.60
2007,06,01,11,04,18.60
2007,06,01,11,05,18.70
2007,06,01,11,06,18.70
2007,06,01,11,07,18.70
2007,06,01,11,08,18.70
2007,06,01,11,09,18.70
2007,06,01,11,10,18.70
2007,06,01,11,11,18.60
2007,06,01,11,12,18.60
2007,06,01,11,13,18.60
2007,06,01,11,14,18.70
2007,06,01,11,15,18.80
2007,06,01,11,16,18.90
2007,06,01,11,17,18.90
2007,06,01,11,18,18.90
2007,06,01,11,19,18.90
2007,06,01,11,20,18.90
2007,06,01,11,21,18.90
2007,06,01,11,22,18.80
2007,06,01,11,23,18.70
2007,06,01,11,24,18.70
2007,06,01,11,25,18.70
2007,06,01,11,26,18.70
2007,06,01,11,27,18.70
2007,06,01,11,28,18.60
2007,06,01,11,29,18.50
2007,06,01,11,30,18.50
2007,06,01,11,31,18.40
2007,06,01,11,32,18.20
2007,06,01,11,33,18.10
2007,06,01,11,34,18.10
2007,06,01,11,35,18.10
2007,06,01,11,36,18.10
2007,06,01,11,37,18.10
2007,06,01,11,38,18.20
2007,06,01,11,39,18.30
2007,06,01,11,40,18.40
2007,06,01,11,41,18.50
2007,06,01,11,42,18.70
2007,06,01,11,43,18.80
2007,06,01,11,44,18.90
2007,06,01,11,45,19.10
2007,06,01,11,46,19.10
2007,06,01,11,47,19.10
2007,06,01,11,48,19.20
2007,06,01,11,49,19.20
2007,06,01,11,50,19.10
2007,06,01,11,51,19.00
2007,06,01,11,52,18.90
2007,06,01,11,53,19.10
2007,06,01,11,54,19.10
2007,06,01,11,55,19.10
2007,06,01,11,56,19.10
2007,06,01,11,57,19.10
2007,06,01,11,58,19.20
2007,06,01,11,59,19.30
2007,06,01,12,00,19.30
2007,06,01,12,01,19.30
2007,06,01,12,02,19.40
2007,06,01,12,03,19.40
2007,06,01,12,04,19.30
2007,06,01,12,05,19.30
2007,06,01,12,06,19.10
2007,06,01,12,07,19.10
2007,06,01,12,08,19.10
2007,06,01,12,09,19.20
2007,06,01,12,10,19.40
2007,06,01,12,11,19.50
2007,06,01,12,12,19.60
2007,06,01,12,13,19.60
2007,06,01,12,14,19.60
2007,06,01,12,15,19.60
2007,06,01,12,16,19.50
2007,06,01,12,17,19.50
2007,06,01,12,18,19.50
2007,06,01,12,19,19.60
2007,06,01,12,20,19.70
2007,06,01,12,21,19.70
2007,06,01,12,22,19.80
2007,06,01,12,23,19.90
2007,06,01,12,24,20.00
2007,06,01,12,25,20.10
2007,06,01,12,26,20.20
2007,06,01,12,27,20.20
2007,06,01,12,28,20.00
2007,06,01,12,29,19.90
2007,06,01,12,30,19.90
2007,06,01,12,31,19.90
2007,06,01,12,32,19.90
2007,06,01,12,33,19.90
2007,06,01,12,34,19.90
2007,06,01,12,35,19.90
2007,06,01,12,36,19.90
2007,06,01,12,37,20.10
2007,06,01,12,38,20.00
2007,06,01,12,39,19.90
2007,06,01,12,40,19.80
2007,06,01,12,41,19.80
2007,06,01,12,42,19.80
2007,06,01,12,43,19.80
2007,06,01,12,44,19.90
2007,06,01,12,45,19.80
2007,06,01,12,46,19.90
2007,06,01,12,47,19.90
2007,06,01,12,48,19.90
2007,06,01,12,49,19.90
2007,06,01,12,50,20.00
2007,06,01,12,51,20.10
2007,06,01,12,52,20.20
2007,06,01,12,53,20.20
2007,06,01,12,54,20.20
2007,06,01,12,55,20.10
2007,06,01,12,56,20.00
2007,06,01,12,57,19.90
2007,06,01,12,58,19.90
2007,06,01,12,59,19.90
2007,06,01,13,00,19.90
2007,06,01,13,01,19.90
2007,06,01,13,02,19.90
2007,06,01,13,03,19.90
2007,06,01,13,04,19.90
2007,06,01,13,05,20.00
2007,06,01,13,06,20.10
2007,06,01,13,07,20.10
2007,06,01,13,08,20.10
2007,06,01,13,09,20.10
2007,06,01,13,10,20.20
2007,06,01,13,11,20.20
2007,06,01,13,12,20.20
2007,06,01,13,13,20.40
2007,06,01,13,14,20.50
2007,06,01,13,15,20.60
2007,06,01,13,16,20.80
2007,06,01,13,17,20.90
2007,06,01,13,18,21.00
2007,06,01,13,19,21.10
2007,06,01,13,20,21.20
2007,06,01,13,21,21.20
2007,06,01,13,22,21.30
2007,06,01,13,23,21.30
2007,06,01,13,24,21.20
2007,06,01,13,25,21.20
2007,06,01,13,26,21.30
2007,06,01,13,27,21.30
2007,06,01,13,28,21.30
2007,06,01,13,29,21.40
2007,06,01,13,30,21.40
2007,06,01,13,31,21.60
2007,06,01,13,32,21.60
2007,06,01,13,33,21.70
2007,06,01,13,34,21.90
2007,06,01,13,35,22.00
2007,06,01,13,36,22.00
2007,06,01,13,37,22.00
2007,06,01,13,38,22.00
2007,06,01,13,39,22.00
2007,06,01,13,40,22.00
2007,06,01,13,41,22.00
2007,06,01,13,42,22.10
2007,06,01,13,43,22.10
2007,06,01,13,44,22.10
2007,06,01,13,45,22.00
2007,06,01,13,46,21.90
2007,06,01,13,47,21.80
2007,06,01,13,48,21.70
2007,06,01,13,49,21.60
2007,06,01,13,50,21.60
2007,06,01,13,51,21.60
2007,06,01,13,52,21.70
2007,06,01,13,53,21.90
2007,06,01,13,54,21.90
2007,06,01,13,55,22.00
2007,06,01,13,56,22.00
2007,06,01,13,57,22.00
2007,06,01,13,58,21.80
2007,06,01,13,59,21.70
2007,06,01,14,00,21.70
2007,06,01,14,01,21.70
2007,06,01,14,02,21.70
2007,06,01,14,03,21.70
2007,06,01,14,04,21.70
2007,06,01,14,05,21.70
2007,06,01,14,06,21.80
2007,06,01,14,07,21.70
2007,06,01,14,08,21.70
2007,06,01,14,09,21.70
2007,06,01,14,10,21.60
2007,06,01,14,11,21.60
2007,06,01,14,12,21.60
2007,06,01,14,13,21.60
2007,06,01,14,14,21.60
2007,06,01,14,15,21.60
2007,06,01,14,16,21.60
2007,06,01,14,17,21.60
2007,06,01,14,18,21.50
2007,06,01,14,19,21.60
2007,06,01,14,20,21.60
2007,06,01,14,21,21.60
2007,06,01,14,22,21.80
2007,06,01,14,23,21.90
2007,06,01,14,24,22.00
2007,06,01,14,25,22.10
2007,06,01,14,26,22.20
2007,06,01,14,27,22.20
2007,06,01,14,28,22.30
2007,06,01,14,29,22.30
2007,06,01,14,30,22.30
2007,06,01,14,31,22.30
2007,06,01,14,32,22.30
2007,06,01,14,33,22.30
2007,06,01,14,34,22.30
2007,06,01,14,35,22.40
2007,06,01,14,36,22.50
2007,06,01,14,37,22.50
2007,06,01,14,38,22.50
2007,06,01,14,39,22.60
2007,06,01,14,40,22.60
2007,06,01,14,41,22.50
2007,06,01,14,42,22.40
2007,06,01,14,43,22.30
2007,06,01,14,44,22.30
2007,06,01,14,45,22.20
2007,06,01,14,46,22.20
2007,06,01,14,47,22.20
2007,06,01,14,48,22.10
2007,06,01,14,49,22.10
2007,06,01,14,50,22.10
2007,06,01,14,51,22.10
2007,06,01,14,52,22.10
2007,06,01,14,53,22.10
2007,06,01,14,54,22.00
2007,06,01,14,55,21.90
2007,06,01,14,56,21.80
2007,06,01,14,57,21.60
2007,06,01,14,58,21.60
2007,06,01,14,59,21.60
2007,06,01,15,00,21.60
2007,06,01,15,01,21.60
2007,06,01,15,02,21.60
2007,06,01,15,03,21.60
2007,06,01,15,04,21.60
2007,06,01,15,05,21.60
2007,06,01,15,06,21.60
2007,06,01,15,07,21.80
2007,06,01,15,08,21.90
2007,06,01,15,09,22.00
2007,06,01,15,10,22.20
2007,06,01,15,11,22.30
2007,06,01,15,12,22.40
2007,06,01,15,13,22.50
2007,06,01,15,14,22.70
2007,06,01,15,15,22.80
2007,06,01,15,16,22.90
2007,06,01,15,17,23.00
2007,06,01,15,18,23.20
2007,06,01,15,19,23.40
2007,06,01,15,20,23.50
2007,06,01,15,21,23.70
2007,06,01,15,22,23.80
2007,06,01,15,23,23.90
2007,06,01,15,24,23.90
2007,06,01,15,25,23.70
2007,06,01,15,26,23.60
2007,06,01,15,27,23.40
2007,06,01,15,28,23.30
2007,06,01,15,29,23.30
2007,06,01,15,30,23.20
2007,06,01,15,31,23.00
2007,06,01,15,32,22.90
2007,06,01,15,33,22.80
2007,06,01,15,34,22.70
2007,06,01,15,35,22.70
2007,06,01,15,36,22.70
2007,06,01,15,37,22.70
2007,06,01,15,38,22.60
2007,06,01,15,39,22.60
2007,06,01,15,40,22.60
2007,06,01,15,41,22.50
2007,06,01,15,42,22.50
2007,06,01,15,43,22.50
2007,06,01,15,44,22.40
2007,06,01,15,45,22.40
2007,06,01,15,46,22.30
2007,06,01,15,47,22.30
2007,06,01,15,48,22.20
2007,06,01,15,49,22.20
2007,06,01,15,50,22.20
2007,06,01,15,51,22.20
2007,06,01,15,52,22.20
2007,06,01,15,53,22.20
2007,06,01,15,54,22.20
2007,06,01,15,55,22.20
2007,06,01,15,56,22.20
2007,06,01,15,57,22.20
2007,06,01,15,58,22.10
2007,06,01,15,59,22.10
2007,06,01,16,00,22.10
2007,06,01,16,01,22.10
2007,06,01,16,02,22.10
2007,06,01,16,03,22.10
2007,06,01,16,04,22.20
2007,06,01,16,05,22.20
2007,06,01,16,06,22.20
2007,06,01,16,07,22.30
2007,06,01,16,08,22.30
2007,06,01,16,09,22.30
2007,06,01,16,10,22.40
2007,06,01,16,11,22.50
2007,06,01,16,12,22.60
2007,06,01,16,13,22.70
2007,06,01,16,14,22.80
2007,06,01,16,15,22.90
2007,06,01,16,16,22.90
2007,06,01,16,17,22.90
2007,06,01,16,18,22.90
2007,06,01,16,19,23.00
2007,06,01,16,20,23.10
2007,06,01,16,21,23.20
2007,06,01,16,22,23.30
2007,06,01,16,23,23.30
2007,06,01,16,24,23.40
2007,06,01,16,25,23.60
2007,06,01,16,26,23.70
2007,06,01,16,27,23.70
2007,06,01,16,28,23.90
2007,06,01,16,29,24.00
2007,06,01,16,30,24.10
2007,06,01,16,31,24.20
2007,06,01,16,32,24.30
2007,06,01,16,33,24.30
2007,06,01,16,34,24.40
2007,06,01,16,35,24.40
2007,06,01,16,36,24.50
2007,06,01,16,37,24.50
2007,06,01,16,38,24.60
2007,06,01,16,39,24.70
2007,06,01,16,40,24.80
2007,06,01,16,41,24.90
2007,06,01,16,42,24.90
2007,06,01,16,43,24.90
2007,06,01,16,44,24.90
2007,06,01,16,45,24.90
2007,06,01,16,46,24.90
2007,06,01,16,47,24.90
2007,06,01,16,48,24.90
2007,06,01,16,49,24.90
2007,06,01,16,50,24.80
2007,06,01,16,51,24.80
2007,06,01,16,52,24.80
2007,06,01,16,53,24.80
2007,06,01,16,54,24.80
2007,06,01,16,55,24.80
2007,06,01,16,56,24.80
2007,06,01,16,57,24.80
2007,06,01,16,58,24.80
2007,06,01,16,59,24.80
2007,06,01,17,00,24.80
2007,06,01,17,01,24.80
2007,06,01,17,02,24.80
2007,06,01,17,03,24.80
2007,06,01,17,04,24.80
2007,06,01,17,05,24.80
2007,06,01,17,06,24.70
2007,06,01,17,07,24.40
2007,06,01,17,08,24.30
2007,06,01,17,09,24.20
2007,06,01,17,10,24.10
2007,06,01,17,11,24.10
2007,06,01,17,12,24.10
2007,06,01,17,13,24.10
2007,06,01,17,14,24.10
2007,06,01,17,15,24.10
2007,06,01,17,16,24.10
2007,06,01,17,17,24.10
2007,06,01,17,18,24.10
2007,06,01,17,19,24.20